Temperature
14 14 14 14 14 14 14 14 14 14 14 14 14 13 13 13 13 13 13 13 12 12 12 12 12 12 12 12 12 11 11 11 11 11 11 11 11 11 11 11 11 11 11
14 14 14 14 14 14 14 14 14 14 14 14 13 13 13 13 13 13 13 12 12 12 12 12 12 12 12 11 11 11 11 11 11 11 11 11 11 10 10 10 10 10 11
14 14 14 14 14 13 13 13 13 13 13 13 13 13 13 13 13 13 12 12 12 12 12 12 12 11 11 11 11 11 11 11 11 11 10 10 10 10 10 10 10 10 10
14 14 13 13 13 13 13 13 13 13 13 13 13 13 13 13 12 12 12 12 12 12 12 12 11 11 11 11 11 11 11 11 10 10 10 10 10 10 10 10 10 10 10
13 13 13 13 13 13 13 13 13 13 13 13 13 12 12 12 12 12 12 12 12 12 12 11 11 11 11 11 11 11 10 10 10 10 10 10 10 10 10 10 10 10 10
13 13 13 13 13 13 13 12 12 12 12 12 12 12 12 12 12 12 12 12 11 11 11 11 11 11 11 11 11 11 10 10 10 10 9 9 9 10 10 10 9 9 9
13 13 13 13 13 12 12 12 12 12 12 12 11 12 12 11 11 11 11 11 11 11 11 11 11 11 10 10 10 10 10 10 10 10 9 9 9 9 9 9 9 9 9
13 12 12 12 12 12 12 12 12 11 11 11 11 11 11 11 11 11 11 11 11 10 10 10 10 10 10 10 10 10 10 10 10 9 9 9 9 9 9 9 9 9 9
12 12 12 12 12 12 12 11 11 11 11 11 11 11 11 11 11 11 10 10 10 10 10 10 10 10 10 10 10 10 9 9 9 9 9 9 9 9 9 9 9 9 8
12 12 12 12 11 11 11 11 11 11 11 11 10 10 10 10 10 10 10 10 10 10 10 10 10 9 9 9 9 9 9 9 9 9 9 9 8 8 8 8 8 8 8
11 11 11 11 11 11 11 11 11 10 10 10 10 10 10 10 10 10 10 10 10 9 9 9 9 9 9 9 9 9 9 8 8 8 8 8 8 8 8 8 8 8 8
11 11 11 11 11 11 11 10 10 10 10 10 10 9 9 9 10 10 9 9 9 9 9 9 9 9 8 8 8 8 8 8 8 8 8 8 8 8 8 8 8 8 8
11 10 10 10 10 10 10 10 10 10 10 10 9 9 9 9 9 9 9 9 9 9 8 8 8 8 8 8 8 8 8 8 8 7 8 8 7 7 7 7 7 7 7
10 10 10 10 10 10 10 9 10 9 9 9 9 9 9 9 9 9 9 9 8 8 8 8 8 7 7 7 7 7 7 7 7 7 7 7 7 7 7 7 7 7 7
10 10 10 10 9 9 9 9 9 9 9 9 9 9 8 8 9 8 8 8 8 8 8 7 7 7 7 7 7 7 7 7 6 6 6 6 6 6 6 6 6 6 6
9 9 9 9 9 9 9 8 8 8 8 8 8 8 8 8 8 8 8 8 8 7 7 7 6 6 6 6 6 6 6 6 6 6 6 6 6 6 6 6 6 6 5
9 8 8 8 8 8 8 8 8 8 8 8 8 8 8 8 7 7 7 7 7 7 6 6 6 6 6 6 6 6 6 6 5 5 5 5 5 5 5 5 5 5 5
8 8 8 8 8 8 8 8 8 8 8 7 7 7 7 7 7 7 7 7 6 6 6 6 6 6 5 5 5 5 5 5 5 5 5 5 5 5 5 5 5 5 4
8 8 8 8 8 7 7 7 7 7 7 7 7 7 7 6 6 6 6 6 6 6 5 5 5 5 5 5 5 5 5 4 4 4 4 4 4 4 4 4 4 4 4
8 7 7 7 7 7 7 7 7 7 6 6 6 6 6 6 6 6 6 6 5 5 5 5 5 5 5 4 4 4 4 4 4 4 4 4 4 4 4 4 4 4 4
7 7 7 7 7 7 7 6 6 6 6 6 6 6 6 6 5 5 5 5 5 5 5 4 4 4 4 4 4 4 4 4 4 4 4 4 4 4 4 4 4 4 4
7 7 6 6 6 6 6 6 6 6 6 5 5 5 5 5 5 5 5 5 5 5 4 4 4 4 4 4 4 4 4 3 3 3 3 3 3 3 3 3 3 3 3
6 6 6 6 6 6 6 6 6 5 5 5 5 5 5 4 4 4 4 4 4 4 4 4 4 4 4 4 4 4 3 3 3 3 3 3 3 3 3 3 3 3 3
6 5 5 5 5 5 5 5 5 5 5 5 4 4 4 4 4 4 4 4 4 4 4 4 4 4 4 3 3 3 3 3 3 3 3 3 3 3 3 3 3 3 2
5 5 5 4 4 4 5 5 4 4 4 4 4 4 4 4 4 4 4 4 4 4 4 3 3 3 3 3 3 3 3 3 3 3 2 2 2 2 2 2 2 2 2
5 4 4 4 4 4 4 4 4 4 4 4 4 3 3 3 3 3 3 3 3 3 3 3 3 3 3 3 2 2 2 2 2 2 2 2 2 2 2 2 2 2 2
Wind_Speed
3 2 2 2 2 2 2 2 2 2 3 3 4 4 4 4 3 3 3 2 2 1 1 1 0 1 1 0 0 0 0 1 1 1 1 1 1 1 2 2 4 5 6
3 3 2 2 2 2 2 2 2 2 2 3 3 2 3 3 3 4 3 3 2 2 1 1 1 1 1 0 0 1 1 1 1 1 1 0 1 2 2 2 2 4 5
3 2 2 2 2 2 1 1 1 2 2 2 3 3 2 2 3 3 3 3 3 2 2 2 2 2 1 0 0 0 0 0 1 1 1 1 1 1 1 1 2 2 4
3 3 2 2 2 1 1 1 1 2 2 1 2 2 2 2 2 2 2 2 2 2 1 1 1 2 2 2 1 1 1 1 1 1 1 1 1 1 1 2 1 1 2
3 3 3 3 2 1 1 2 1 1 1 1 1 1 2 2 2 3 2 1 1 1 1 1 1 2 2 1 1 1 1 1 1 1 1 1 1 1 2 2 2 1 2
3 3 3 3 3 2 2 2 2 2 1 2 1 1 1 1 2 3 2 1 1 1 1 1 2 2 2 2 2 1 1 2 2 2 2 2 2 2 2 2 1 1 2
2 2 2 3 2 2 3 3 3 2 2 2 2 2 1 1 2 1 1 1 1 1 1 1 1 1 2 2 2 2 2 3 4 3 2 3 2 2 1 2 2 2 3
2 3 3 2 2 2 2 3 3 2 2 3 2 3 2 2 2 1 1 2 2 2 2 1 1 1 1 1 1 1 2 2 3 3 4 4 3 2 2 2 3 2 1
1 1 1 2 2 3 3 3 3 2 2 3 3 3 3 2 3 2 1 1 2 3 2 1 1 1 1 1 1 1 2 2 2 3 4 4 4 3 2 0 1 1 1
1 1 1 2 2 3 4 3 3 2 2 3 2 3 3 3 3 3 2 1 1 2 1 1 0 0 0 1 2 2 3 3 3 3 3 4 4 4 4 3 3 2 1
1 1 1 1 2 4 4 3 3 3 2 2 2 2 2 3 3 4 3 1 1 2 1 1 1 1 1 2 2 2 4 4 3 3 3 3 2 2 3 3 3 3 3
1 1 1 2 2 3 3 3 3 3 3 2 2 2 1 2 3 4 4 3 2 1 2 1 1 2 2 3 3 4 4 3 2 2 2 2 2 2 2 2 3 2 3
1 0 0 1 2 3 3 3 3 2 3 2 2 2 1 1 2 3 3 3 3 1 1 2 3 4 3 3 3 3 2 1 1 2 3 3 2 2 2 1 1 1 1
1 1 1 1 1 2 2 3 3 3 3 2 2 2 1 1 1 1 1 1 1 1 1 2 2 2 2 2 2 1 1 1 2 2 2 1 1 1 1 1 1 1 1
2 1 1 1 1 1 1 1 2 3 4 4 3 2 2 2 2 1 1 1 1 1 0 0 1 1 1 1 1 1 1 0 1 1 1 1 1 1 1 1 1 1 2
1 1 1 1 1 2 2 1 1 2 3 3 4 3 2 3 3 2 2 1 2 1 1 2 2 2 2 2 2 1 1 1 1 1 1 1 1 2 2 1 1 2 2
2 1 1 1 1 2 2 2 2 1 1 2 3 3 4 4 3 3 3 2 2 2 2 2 3 2 2 2 2 2 2 2 1 1 1 1 2 2 2 2 2 2 3
2 2 1 2 2 2 2 2 3 3 3 2 2 4 4 4 4 4 3 1 1 2 2 3 3 3 2 2 3 3 2 2 2 2 2 2 2 2 2 2 2 3 3
1 1 1 1 1 2 2 2 2 3 2 2 1 2 3 3 3 4 3 3 3 3 3 3 2 2 2 2 3 3 3 3 3 2 2 3 3 2 2 2 2 3 3
1 2 2 2 2 2 2 3 3 3 3 2 2 2 2 2 1 2 3 3 3 3 3 3 2 3 3 3 3 3 3 3 3 3 3 3 3 2 3 3 3 3 3
1 2 3 2 2 2 2 3 3 3 3 2 2 3 4 3 3 4 4 4 4 4 3 3 3 3 3 3 3 3 3 3 3 3 3 3 3 3 3 3 3 3 2
1 1 1 1 1 1 2 2 2 3 3 3 2 2 4 3 3 3 3 4 3 3 3 3 3 3 3 3 3 3 4 3 3 3 3 3 3 3 3 3 3 3 3
1 1 1 1 1 1 1 2 2 3 3 3 2 2 3 3 3 3 3 3 3 2 2 2 3 3 2 2 2 3 4 4 3 3 3 3 3 3 3 3 4 3 3
1 1 1 1 1 1 1 2 2 2 2 3 3 3 3 3 3 3 2 2 2 2 2 2 3 3 3 2 2 3 3 3 3 3 3 3 3 3 3 3 3 4 4
1 1 1 1 1 1 1 1 1 2 2 2 2 2 3 3 2 2 2 2 2 2 2 2 2 2 3 3 3 2 3 3 2 2 3 3 4 4 3 3 3 3 3
1 1 1 1 1 1 1 1 1 1 2 2 2 2 2 2 2 2 2 2 2 2 2 2 2 2 2 2 3 3 3 3 3 3 3 2 3 4 4 3 4 4 4
Wind_Direction
170 191 205 202 208 208 186 197 194 203 188 179 186 184 173 167 166 161 161 161 160 165 145 132 156 115 93 105 78 90 21 143 208 280 270 173 153 180 170 191 188 179 187
181 193 197 198 216 208 193 191 197 202 190 186 176 177 170 169 170 164 170 163 169 183 187 164 178 130 82 66 122 169 202 188 163 240 289 316 195 185 176 212 208 202 190
173 184 184 197 219 223 195 167 199 197 192 181 164 170 172 168 160 163 170 166 171 186 197 187 186 165 175 176 150 147 223 205 142 191 272 284 264 214 177 232 234 216 211
165 176 189 203 211 216 174 170 208 192 177 176 165 177 170 161 145 146 146 149 168 184 205 195 182 173 164 178 190 196 193 158 153 166 236 259 255 249 188 220 250 245 239
163 180 195 205 204 201 173 184 183 151 167 161 158 173 171 148 134 121 129 134 146 190 232 208 188 177 162 164 184 211 201 178 173 189 224 243 259 248 234 232 227 242 251
176 185 200 199 189 180 179 168 154 157 175 151 148 124 120 115 115 117 125 135 173 200 238 230 222 209 180 181 196 199 194 195 207 203 222 227 238 244 237 232 213 218 272
185 185 200 190 175 181 173 157 159 170 183 161 160 149 141 128 117 112 122 169 219 242 251 240 269 239 188 183 213 226 233 233 218 211 206 235 241 255 244 235 225 217 229
192 185 187 175 173 174 166 168 172 170 177 167 171 162 158 174 183 207 221 212 234 242 240 237 239 235 220 168 200 238 253 252 236 222 210 223 238 245 223 244 237 235 244
171 180 156 160 169 172 170 172 162 156 174 168 176 177 176 186 191 191 201 225 243 243 233 218 182 204 206 137 180 239 256 272 259 231 218 220 227 234 229 342 294 209 242
170 166 148 148 164 173 169 169 157 162 177 164 167 169 170 167 189 195 214 228 262 272 249 197 343 303 294 226 222 226 238 249 251 257 250 245 230 225 221 202 207 215 219
102 128 149 155 172 164 157 151 147 164 169 170 172 177 175 171 191 192 189 211 248 277 274 250 273 326 285 266 255 238 253 262 250 243 239 232 223 214 212 212 208 200 200
74 139 158 158 162 152 146 155 158 166 162 173 177 187 190 182 192 200 203 228 247 256 266 272 278 305 294 286 272 266 275 279 255 240 238 237 229 225 227 231 213 209 198
96 292 218 162 151 156 164 170 166 166 167 178 188 197 212 189 193 201 215 246 254 255 261 265 285 292 292 282 270 274 279 258 236 229 234 239 236 222 217 240 250 208 214
203 222 222 172 148 161 162 167 166 178 178 185 196 205 217 186 139 176 226 252 258 279 291 296 306 303 301 282 280 287 263 236 226 235 245 250 259 239 225 213 223 263 260
232 235 214 179 158 157 165 181 184 185 177 182 195 197 195 217 228 222 215 251 235 236 237 264 278 287 284 274 285 289 291 296 274 277 270 275 260 252 257 232 202 213 227
235 242 224 204 168 175 172 161 118 166 157 175 188 196 214 216 214 227 254 260 240 213 180 215 235 239 247 244 238 252 257 263 266 262 244 236 241 246 255 262 238 221 236
235 230 207 209 212 211 203 189 191 188 176 191 205 208 208 210 211 220 228 242 241 205 217 227 231 229 236 240 233 232 237 244 251 242 242 246 245 245 244 243 237 236 239
237 223 215 213 211 220 223 220 206 195 193 213 223 210 202 209 216 220 212 199 235 223 224 228 232 229 228 232 232 231 229 226 230 236 236 236 240 244 239 235 237 239 245
231 224 207 222 218 219 222 227 218 199 191 192 184 190 189 190 210 218 192 197 215 227 235 236 235 235 238 236 233 230 223 221 224 225 232 236 231 237 240 239 244 250 244
211 228 235 223 222 213 219 223 212 194 189 192 200 194 170 155 195 215 213 222 227 231 231 233 233 235 233 232 232 230 233 229 224 224 228 232 232 231 235 239 245 247 241
201 208 225 226 220 214 223 218 204 191 192 198 207 197 187 200 214 220 226 229 230 229 224 226 230 232 233 229 225 227 232 236 232 228 226 223 224 231 236 239 244 240 238
196 206 216 230 229 214 226 215 201 193 198 209 210 199 203 214 220 227 236 240 236 233 222 222 232 226 218 220 221 224 228 233 230 228 230 224 224 228 234 235 238 240 236
192 216 221 251 256 231 226 211 200 200 204 208 205 200 207 222 225 229 237 239 235 233 226 226 226 225 216 225 227 221 221 224 221 216 222 227 227 228 228 228 230 235 237
188 216 231 242 248 234 234 226 216 211 209 211 213 212 213 224 230 235 240 241 233 235 228 227 226 225 222 224 223 220 226 224 220 219 216 220 229 234 232 229 230 235 233
207 222 230 229 240 236 239 240 226 215 218 216 214 219 221 226 231 233 241 248 245 239 236 234 229 223 222 221 219 216 216 220 237 238 227 219 222 224 226 234 231 233 235
219 226 229 217 235 250 250 250 243 234 228 223 216 220 225 227 229 228 231 242 249 248 243 233 232 240 242 229 223 210 205 213 229 242 241 228 222 225 223 231 235 233 231
Height
1499 1501 1502 1503 1505 1505 1506 1507 1508 1508 1509 1510 1511 1512 1513 1514 1515 1515 1516 1517 1517 1518 1519 1519 1519 1520 1520 1521 1521 1521 1521 1521 1521 1521 1521 1522 1522 1522 1522 1522 1521 1521 1521
1497 1498 1499 1501 1502 1503 1503 1504 1505 1506 1506 1507 1508 1509 1510 1511 1512 1513 1514 1515 1515 1516 1516 1517 1517 1518 1518 1519 1519 1519 1519 1519 1520 1519 1519 1520 1520 1520 1520 1520 1520 1519 1519
1494 1495 1497 1498 1499 1500 1500 1501 1502 1503 1504 1504 1506 1507 1508 1508 1509 1510 1511 1512 1513 1513 1514 1515 1515 1516 1516 1516 1516 1516 1517 1517 1517 1517 1517 1518 1518 1518 1518 1518 1518 1517 1517
1491 1492 1494 1495 1496 1497 1497 1498 1499 1500 1500 1502 1503 1504 1505 1506 1507 1508 1509 1510 1510 1511 1512 1512 1513 1513 1514 1514 1514 1514 1514 1515 1515 1515 1515 1515 1516 1516 1516 1515 1515 1515 1515
1488 1489 1490 1492 1493 1494 1494 1495 1496 1497 1499 1499 1500 1501 1502 1503 1504 1505 1506 1507 1508 1509 1509 1510 1510 1510 1511 1511 1512 1512 1512 1512 1512 1512 1512 1513 1513 1513 1513 1513 1513 1513 1513
1486 1487 1488 1489 1490 1491 1492 1492 1494 1495 1495 1496 1498 1499 1500 1501 1502 1503 1504 1505 1505 1506 1506 1507 1507 1508 1508 1508 1509 1509 1509 1509 1509 1510 1510 1510 1510 1510 1510 1510 1510 1511 1510
1483 1484 1485 1486 1487 1487 1488 1489 1491 1492 1493 1494 1495 1496 1497 1498 1500 1501 1501 1502 1503 1503 1503 1504 1504 1505 1505 1505 1506 1506 1506 1506 1507 1507 1507 1507 1507 1507 1507 1507 1507 1508 1508
1480 1481 1482 1483 1483 1484 1485 1486 1487 1489 1489 1491 1492 1493 1494 1496 1497 1498 1499 1499 1500 1500 1500 1501 1501 1501 1501 1502 1502 1502 1502 1503 1503 1503 1504 1504 1504 1505 1505 1505 1505 1505 1505
1478 1478 1479 1479 1480 1481 1482 1483 1484 1486 1487 1488 1490 1491 1492 1493 1495 1495 1496 1496 1497 1497 1497 1498 1498 1498 1498 1499 1499 1499 1499 1499 1500 1500 1500 1501 1501 1501 1501 1502 1502 1502 1501
1475 1475 1476 1476 1477 1478 1479 1480 1482 1483 1484 1486 1487 1489 1490 1490 1492 1492 1493 1493 1493 1494 1494 1494 1495 1495 1495 1495 1495 1495 1495 1495 1496 1496 1496 1497 1497 1497 1498 1498 1498 1498 1498
1472 1473 1473 1474 1474 1476 1477 1478 1479 1481 1482 1484 1485 1486 1487 1488 1488 1489 1490 1490 1490 1490 1491 1491 1491 1491 1492 1492 1491 1491 1491 1492 1492 1492 1492 1493 1493 1494 1494 1494 1495 1495 1495
1470 1470 1470 1471 1472 1473 1474 1476 1477 1478 1480 1481 1482 1483 1484 1485 1485 1486 1486 1487 1487 1487 1487 1487 1487 1488 1488 1488 1488 1488 1488 1488 1488 1488 1488 1489 1489 1490 1490 1491 1491 1491 1491
1467 1467 1468 1469 1470 1471 1472 1473 1474 1475 1477 1478 1480 1480 1481 1482 1482 1483 1483 1484 1484 1484 1484 1484 1484 1484 1484 1484 1484 1484 1484 1485 1484 1485 1485 1485 1486 1486 1486 1487 1487 1488 1488
1465 1465 1466 1466 1467 1468 1469 1470 1471 1472 1474 1475 1476 1477 1477 1478 1479 1479 1479 1480 1480 1480 1480 1480 1480 1480 1480 1480 1480 1480 1481 1481 1481 1481 1481 1482 1482 1482 1482 1483 1483 1483 1483
1462 1462 1463 1463 1464 1465 1466 1467 1468 1469 1470 1472 1473 1473 1474 1474 1475 1476 1476 1476 1476 1476 1476 1476 1476 1476 1476 1476 1476 1476 1477 1477 1477 1477 1478 1478 1478 1478 1479 1479 1479 1480 1480
1458 1459 1459 1460 1461 1461 1462 1462 1464 1465 1467 1468 1469 1470 1470 1471 1471 1472 1472 1473 1473 1473 1472 1471 1472 1472 1472 1472 1472 1473 1473 1473 1473 1474 1474 1474 1474 1474 1475 1475 1476 1476 1476
1455 1456 1456 1457 1457 1458 1458 1458 1459 1461 1463 1464 1465 1466 1466 1467 1467 1468 1468 1469 1469 1469 1468 1468 1468 1468 1469 1469 1469 1469 1469 1469 1470 1470 1470 1470 1471 1471 1471 1471 1472 1472 1472
1452 1453 1453 1453 1454 1454 1455 1455 1456 1457 1458 1459 1461 1462 1462 1463 1463 1464 1464 1464 1464 1464 1464 1464 1464 1465 1465 1465 1465 1465 1465 1465 1466 1466 1466 1467 1467 1467 1467 1468 1468 1468 1469
1449 1449 1449 1450 1450 1451 1451 1452 1453 1453 1454 1455 1456 1457 1458 1459 1459 1460 1460 1460 1460 1460 1460 1460 1460 1461 1461 1461 1461 1461 1461 1461 1462 1462 1462 1463 1463 1463 1463 1464 1464 1464 1465
1445 1445 1446 1446 1446 1447 1448 1448 1449 1449 1450 1451 1452 1453 1453 1454 1454 1455 1455 1455 1455 1456 1456 1456 1457 1457 1457 1457 1457 1457 1457 1457 1458 1458 1458 1459 1459 1459 1459 1460 1460 1460 1461
1441 1441 1442 1442 1443 1443 1444 1444 1445 1445 1446 1447 1448 1449 1449 1450 1450 1451 1451 1451 1451 1451 1452 1452 1452 1453 1453 1453 1453 1453 1453 1453 1453 1454 1454 1454 1455 1455 1455 1456 1456 1456 1457
1438 1438 1438 1438 1439 1439 1440 1440 1441 1441 1442 1443 1444 1445 1446 1446 1446 1447 1447 1447 1447 1447 1447 1448 1448 1448 1448 1448 1448 1448 1448 1449 1449 1449 1449 1450 1450 1451 1451 1451 1452 1453 1453
1435 1435 1435 1436 1436 1436 1436 1437 1437 1438 1439 1440 1441 1441 1441 1442 1442 1443 1443 1443 1443 1443 1443 1443 1443 1443 1443 1443 1443 1444 1444 1444 1444 1444 1445 1445 1446 1446 1447 1447 1448 1448 1449
1432 1432 1433 1433 1433 1433 1433 1433 1434 1435 1436 1436 1437 1437 1437 1438 1438 1438 1438 1438 1438 1438 1438 1438 1438 1438 1438 1438 1438 1439 1439 1439 1440 1440 1441 1441 1442 1442 1443 1443 1444 1444 1445
1429 1429 1430 1430 1429 1429 1430 1430 1431 1432 1432 1432 1433 1433 1433 1433 1433 1434 1434 1434 1434 1433 1433 1434 1434 1433 1433 1433 1433 1434 1434 1434 1435 1435 1436 1436 1437 1438 1438 1439 1439 1440 1441
1426 1426 1426 1426 1426 1426 1426 1427 1427 1428 1428 1428 1428 1429 1429 1429 1429 1429 1429 1429 1429 1429 1429 1429 1429 1429 1429 1429 1429 1429 1429 1429 1430 1431 1431 1431 1432 1433 1434 1434 1435 1436 1436